Location: ??????????
(54.7560°N, 39.1389°E)
Time: 03:58:01
(UTC+00:00)

ISS - Pass Details

Date: 19 May 2025
Orbit: 415 x 418 km, 51.6° (Epoch: 19 June)

Event Time Altitude Azimuth Distance (km) Brightness Sun altitude
Rises 18:36:36 0° 273° (W) 2,363 0.7 -7.6°
Reaches altitude 10° 18:38:47 10° 265° (W) 1,497 -0.5 -7.8°
Maximum altitude 18:41:55 37° 196° (SSW) 663 -3.0 -8.0°
Enters shadow 18:44:55 11° 128° (SE) 1,440 -1.7 -8.3°
